Flag for Germany Weather past 2 weeks in Bad Hersfeld, Hesse, Germany

Now
61 °F

Passing clouds.


Feels Like: 61 °F
Forecast: 53 / 74 °F
Wind: 2 mph from Northwest

Location: Fritzlar Airport

Current Time: Sep 16, 2014 at 11:40:24 PM

Latest Report: Sep 16, 2014 at 10:20 PM


Visibility: N/A

Pressure: 30.01 "Hg

Humidity: 94%

Dew point: 59 °F

Location of Bad HersfeldLocation

Historic Weather in Bad Hersfeld — Graph

°F

Bad Hersfeld temperature yesterday

Maximum temperature yesterday: 68 °F (at 1:20 PM)
Minimum temperature yesterday: 57 °F (at 12:20 AM)
Average temperature yesterday: 63 °F

Past Weeks' High & Low Weather Summary

 TemperatureHumidityPressure
High79 °F (Sep 6, 4:20 PM)100% (Sep 2, 1:20 AM)30.24 "Hg (Sep 2, 1:20 AM)
Low46 °F (Sep 9, 7:20 AM)51% (Sep 6, 5:20 PM)29.86 "Hg (Sep 6, 4:20 PM)
Average61 °F83%30.07 "Hg
* Reported Sep 1 10:20 PM — Sep 16 10:20 PM, Bad Hersfeld, Weather by CustomWeather, © 2014

Note: Actual official high and low records may vary slightly from our data, if they occured in-between our weather recording intervals... More about our weather records

Advertising

Bad Hersfeld weather history for previous 24 hours

 ConditionsComfort  
Time TempWeatherWind HumidityBarometerVisibility
10:20 PM
Sep 16
61 °FPassing clouds.2 mph94%30.01 "HgN/A
9:20 PM63 °FPassing clouds.2 mph88%30.01 "HgN/A
8:20 PM64 °FPartly sunny.2 mph83%29.98 "HgN/A
7:20 PM70 °FScattered clouds.3 mph73%29.98 "HgN/A
6:20 PM72 °FPassing clouds.6 mph65%29.98 "HgN/A
5:20 PM73 °FPassing clouds.10 mph61%29.98 "HgN/A
4:56 PM73 °FPassing clouds.8 mph61%29.98 "HgN/A
4:20 PM73 °FPassing clouds.8 mph61%29.98 "HgN/A
3:20 PM72 °FPassing clouds.8 mph65%30.01 "HgN/A
2:20 PM70 °FScattered clouds.7 mph69%30.01 "HgN/A
1:20 PM70 °FPartly sunny.7 mph69%30.01 "HgN/A
12:20 PM68 °FPartly sunny.6 mph73%30.04 "HgN/A
11:20 AM64 °FPartly sunny.5 mph83%30.04 "HgN/A
10:20 AM63 °FBroken clouds.5 mph88%30.04 "Hg5 mi
9:20 AM61 °FFog.3 mph94%30.04 "Hg3 mi
8:20 AM59 °FFog.2 mph94%30.04 "Hg2 mi
7:52 AM57 °FFog.2 mph94%30.04 "Hg2 mi
7:20 AM57 °FFog.3 mph94%30.04 "Hg2 mi
6:55 AM57 °FFog.2 mph94%30.04 "Hg2 mi
6:20 AM57 °FFog.3 mph94%30.04 "Hg2 mi
5:20 AM57 °FFog.3 mph94%30.04 "Hg2 mi
4:20 AM57 °FFog.5 mph94%30.04 "Hg2 mi
3:20 AM57 °FFog.5 mph94%30.04 "Hg3 mi
2:50 AM57 °FFog.5 mph94%30.04 "Hg3 mi
2:20 AM57 °FFog.6 mph100%30.04 "Hg3 mi
1:20 AM59 °FPassing clouds.3 mph94%30.04 "Hg4 mi
1:04 AM59 °FPassing clouds.3 mph94%30.04 "Hg4 mi
12:20 AM61 °FPassing clouds.3 mph88%30.04 "Hg6 mi
11:20 PM
Sep 15
63 °FPassing clouds.3 mph88%30.04 "HgN/A
Weather by CustomWeather, © 2014

See weather overviewHow to use our weather pages